EW7833 Weather Reports


Display with metric or nautical units.
time (UTC)temp
F
wind
direction
speed
MPH
gust
MPH
rain 1hr
in
rain 24hr
in
rain mn
in
humidity
%
barometer
mb
20260904100048 60 121 0.0 0.0 0.00 0.00 0.00 89 1014.0
20260904094547 60 121 0.0 0.0 0.00 0.00 0.00 90 1014.0
20260904093047 60 121 0.0 0.0 0.00 0.00 0.00 89 1013.9
20260904091545 60 121 0.0 0.0 0.00 0.00 0.00 89 1014.1
20260904090041 60 121 0.0 0.0 0.00 0.00 0.00 90 1013.7
20260904084543 59 121 0.0 0.0 0.00 0.00 0.00 90 1013.6
20260904083037 59 121 0.0 0.0 0.00 0.00 0.00 90 1013.7
20260904081533 60 121 0.0 0.0 0.00 0.00 0.00 90 1013.6
20260904080041 60 121 0.0 0.0 0.00 0.00 0.00 89 1013.9
20260904074528 59 121 0.0 0.0 0.00 0.00 0.00 90 1013.3
20260904073028 59 121 0.0 0.0 0.00 0.00 0.00 90 1013.6
20260904071526 59 121 0.0 0.0 0.00 0.00 0.00 90 1013.9
20260904070038 59 121 0.0 0.0 0.00 0.00 0.00 90 1013.8
20260904064522 60 121 0.0 0.0 0.00 0.00 0.00 90 1013.5
20260904063018 59 121 0.0 0.0 0.00 0.00 0.00 89 1013.8
20260904061516 59 121 0.0 0.0 0.00 0.00 0.00 90 1014.1
20260904060016 59 121 0.0 0.0 0.00 0.00 0.00 90 1014.6
20260904054527 59 121 0.0 0.0 0.00 0.00 0.00 90 1014.7
20260904053018 58 121 0.0 0.0 0.00 0.00 0.00 91 1014.4
20260904051511 58 121 0.0 0.0 0.00 0.00 0.00 92 1014.8
20260904050010 58 121 0.0 0.0 0.00 0.00 0.00 92 1014.7
20260904044512 59 121 0.0 0.0 0.00 0.00 0.00 92 1014.7
20260904043006 59 121 0.0 0.0 0.00 0.00 0.00 92 1014.7
20260904041505 59 121 0.0 0.0 0.00 0.00 0.00 92 1014.7
20260904040002 59 121 0.0 0.0 0.00 0.00 0.00 92 1014.8
20260904034502 60 121 0.0 0.0 0.00 0.00 0.00 92 1014.5
20260904033000 60 121 0.0 0.0 0.00 0.00 0.00 92 1014.8
20260904031602 60 121 0.0 0.0 0.00 0.00 0.00 92 1014.4
20260904024600 61 121 0.0 0.0 0.00 0.00 0.00 92 1014.2
20260904023059 61 121 0.0 0.0 0.00 0.00 0.00 92 1014.2
20260904021613 62 121 0.0 0.0 0.00 0.00 0.00 92 1014.3
20260904020059 63 121 0.0 0.0 0.00 0.00 0.00 91 1014.4
20260904014606 63 121 0.0 0.0 0.00 0.00 0.00 91 1014.1
20260904013121 64 121 0.0 0.0 0.00 0.00 0.00 90 1014.0
20260904011637 64 121 0.0 0.0 0.00 0.00 0.00 88 1013.8
20260904010056 64 121 0.0 0.0 0.00 0.00 0.00 85 1013.6
20260904004556 65 121 0.0 0.0 0.00 0.00 0.00 84 1013.3
20260904003056 66 121 0.0 0.0 0.00 0.00 0.00 84 1013.1
20260904001555 67 120 0.0 0.0 0.00 0.00 0.00 83 1013.2
20260904000054 68 121 0.0 0.0 0.00 0.00 0.00 81 1013.2
20260903234554 69 121 0.0 0.0 0.00 0.00 0.00 82 1013.0
20260903233053 70 121 0.0 0.0 0.00 0.00 0.00 79 1012.8
20260903231553 71 121 0.0 0.0 0.00 0.00 0.00 75 1012.6
20260903230053 72 121 0.0 0.0 0.00 0.00 0.00 74 1012.6
20260903224553 73 121 0.0 0.0 0.00 0.00 0.00 74 1012.4
20260903223051 74 121 0.0 1.0 0.00 0.00 0.00 69 1012.0
20260903221550 75 112 0.0 3.0 0.00 0.00 0.00 66 1011.8
20260903220050 74 116 0.0 2.0 0.00 0.00 0.00 65 1011.6
20260903214557 75 110 0.0 4.0 0.00 0.00 0.00 61 1011.5
20260903213049 76 119 0.0 2.0 0.00 0.00 0.00 63 1011.4
20260903211551 76 103 0.0 1.0 0.00 0.00 0.00 63 1011.8
20260903210055 76 120 0.0 1.0 0.00 0.00 0.00 64 1012.1
20260903204553 76 133 0.0 2.0 0.00 0.00 0.00 68 1012.5
20260903203038 74 120 0.0 0.0 0.00 0.00 0.00 71 1012.6
20260903201538 74 155 0.0 0.0 0.00 0.00 0.00 71 1012.9
20260903200037 73 155 0.0 0.0 0.00 0.00 0.00 71 1013.1
20260903194538 74 155 0.0 0.0 0.00 0.00 0.00 72 1013.4
20260903193037 74 155 0.0 0.0 0.00 0.00 0.00 72 1013.9
20260903191536 72 155 0.0 0.0 0.00 0.00 0.00 73 1013.9
20260903190037 72 155 0.0 0.0 0.00 0.00 0.00 74 1014.3
20260903184535 73 155 0.0 0.0 0.00 0.00 0.00 69 1014.7
20260903183038 74 152 0.0 0.0 0.00 0.00 0.00 63 1014.8
20260903181534 73 125 0.0 0.0 0.00 0.00 0.00 64 1014.7
20260903180039 73 107 0.0 1.0 0.00 0.00 0.00 71 1014.3
20260903174530 72 106 0.0 0.0 0.00 0.00 0.00 68 1014.1
20260903173029 73 106 0.0 0.0 0.00 0.00 0.00 68 1013.8
20260903171529 73 102 0.0 1.0 0.00 0.00 0.00 68 1013.7
20260903170039 73 110 0.0 1.0 0.00 0.00 0.00 70 1013.7
20260903164528 73 109 0.0 1.0 0.00 0.00 0.00 68 1013.5
20260903163036 74 121 0.0 3.0 0.00 0.00 0.00 66 1013.6
20260903161528 74 112 0.0 2.0 0.00 0.00 0.00 65 1013.4
20260903160027 74 125 0.0 3.0 0.00 0.00 0.00 63 1013.4
20260903154525 75 116 0.0 2.0 0.00 0.00 0.00 63 1013.5
20260903153023 74 117 0.0 2.0 0.00 0.00 0.00 67 1013.6
20260903151520 73 113 0.0 1.0 0.00 0.00 0.00 68 1014.0
20260903150027 72 112 0.0 2.0 0.00 0.00 0.00 70 1014.0
20260903144516 72 118 0.0 3.0 0.00 0.00 0.00 71 1013.7
20260903143013 71 111 0.0 1.0 0.00 0.00 0.00 79 1013.7
20260903141514 70 226 0.0 0.0 0.00 0.00 0.00 92 1013.7
20260903140006 68 143 0.0 1.0 0.00 0.00 0.00 89 1013.8
20260903134502 66 143 0.0 0.0 0.00 0.01 0.00 85 1013.7
20260903133104 65 143 0.0 1.0 0.00 0.01 0.00 84 1013.9
20260903131607 63 154 0.0 0.0 0.00 0.01 0.00 85 1013.8
20260903130056 63 154 0.0 0.0 0.00 0.01 0.00 86 1014.0
20260903124606 62 219 0.0 0.0 0.00 0.01 0.00 86 1014.2
20260903123051 62 219 0.0 0.0 0.00 0.01 0.00 86 1014.1
20260903121550 62 219 0.0 0.0 0.00 0.01 0.00 86 1013.7
20260903120059 61 219 0.0 0.0 0.00 0.01 0.00 85 1013.9
20260903114548 61 219 0.0 0.0 0.00 0.01 0.00 85 1013.9
20260903113053 60 219 0.0 0.0 0.00 0.01 0.00 86 1013.7
20260903111545 59 219 0.0 0.0 0.00 0.01 0.00 88 1013.5
20260903110047 60 219 0.0 0.0 0.00 0.01 0.00 87 1013.5
20260903104547 60 238 0.0 0.0 0.00 0.01 0.00 87 1013.4
20260903103043 59 238 0.0 0.0 0.00 0.01 0.00 87 1013.3
20260903101549 59 238 0.0 0.0 0.00 0.01 0.00 87 1013.3